Time,TemperatureF,DewpointF,PressureIn,WindDirection,WindDirectionDegrees,WindSpeedMPH,WindSpeedGustMPH,Humidity,HourlyPrecipIn,Conditions,Clouds,dailyrainin,SolarRadiationWatts/m^2,SoftwareType,DateUTC
2013-10-21 06:40:00,36.7,21.2,0.00,WNW,292,0.0,0.0,53,0.00,,---,0.00,0.00,VWS V14.01,2013-10-21 11:40:00,
2013-10-21 06:41:00,36.7,21.2,0.00,WNW,292,0.0,0.0,53,0.00,,---,0.00,0.00,VWS V14.01,2013-10-21 11:41:00,
2013-10-21 06:46:00,36.5,21.5,29.97,NW,315,0.0,0.0,54,0.00,,---,0.00,0.00,VWS V14.01,2013-10-21 11:46:00,
2013-10-21 06:50:00,36.3,21.7,29.97,WNW,292,0.0,0.0,55,0.00,,---,0.00,0.00,VWS V14.01,2013-10-21 11:50:00,
2013-10-21 06:55:00,36.3,21.7,29.97,WNW,292,0.0,0.0,55,0.00,,---,0.00,0.00,VWS V14.01,2013-10-21 11:55:00,
2013-10-21 07:01:00,36.1,22.0,29.97,NW,315,0.0,4.9,56,0.00,,---,0.00,0.00,VWS V14.01,2013-10-21 12:01:00,
2013-10-21 07:07:00,36.1,22.0,29.97,NW,315,0.0,0.0,56,0.00,,---,0.00,0.00,VWS V14.01,2013-10-21 12:07:00,
2013-10-21 07:13:00,36.1,22.4,29.97,NW,315,0.0,0.0,57,0.00,,---,0.00,0.00,VWS V14.01,2013-10-21 12:13:00,
2013-10-21 07:19:00,36.0,22.6,29.97,NNW,338,0.0,0.0,58,0.00,,---,0.00,0.00,VWS V14.01,2013-10-21 12:19:00,
2013-10-21 07:25:00,36.0,22.6,29.97,NW,315,0.0,0.0,58,0.00,,---,0.00,0.00,VWS V14.01,2013-10-21 12:25:00,
2013-10-21 07:31:00,35.8,22.5,29.97,NW,315,0.0,0.0,58,0.00,,---,0.00,0.00,VWS V14.01,2013-10-21 12:31:00,
2013-10-21 07:36:00,36.0,23.4,29.97,WNW,292,0.0,0.0,60,0.00,,---,0.00,0.00,VWS V14.01,2013-10-21 12:36:00,
2013-10-21 07:41:00,36.1,23.6,30.00,WNW,292,0.0,0.0,60,0.00,,---,0.00,0.00,VWS V14.01,2013-10-21 12:41:00,
2013-10-21 07:46:00,36.1,23.6,30.00,NW,315,0.0,0.0,60,0.00,,---,0.00,0.00,VWS V14.01,2013-10-21 12:46:00,
2013-10-21 07:51:00,35.8,22.9,30.00,WNW,292,0.0,0.0,59,0.00,,---,0.00,0.00,VWS V14.01,2013-10-21 12:51:00,
2013-10-21 07:57:00,35.6,22.7,30.00,NW,315,0.0,0.0,59,0.00,,---,0.00,0.00,VWS V14.01,2013-10-21 12:57:00,
2013-10-21 08:03:00,35.6,22.7,30.00,WNW,292,0.0,0.0,59,0.00,,---,0.00,0.00,VWS V14.01,2013-10-21 13:03:00,
2013-10-21 08:08:00,35.4,22.9,30.00,WNW,292,0.0,0.0,60,0.00,,---,0.00,0.00,VWS V14.01,2013-10-21 13:08:00,
2013-10-21 08:13:00,35.4,22.9,30.00,NW,315,0.0,0.0,60,0.00,,---,0.00,0.00,VWS V14.01,2013-10-21 13:13:00,
2013-10-21 08:18:00,35.4,22.9,30.00,NW,315,0.0,0.0,60,0.00,,---,0.00,0.00,VWS V14.01,2013-10-21 13:18:00,
2013-10-21 08:23:00,35.4,22.9,30.00,NW,315,0.0,0.0,60,0.00,,---,0.00,0.00,VWS V14.01,2013-10-21 13:23:00,
2013-10-21 08:29:00,35.6,23.1,30.00,NW,315,0.0,0.0,60,0.00,,---,0.00,0.00,VWS V14.01,2013-10-21 13:29:00,
2013-10-21 08:35:00,36.0,23.8,30.00,NNW,338,0.0,5.4,61,0.00,,---,0.00,0.00,VWS V14.01,2013-10-21 13:35:00,
2013-10-21 08:41:00,36.0,23.8,30.00,NW,315,0.0,0.0,61,0.00,,---,0.00,0.00,VWS V14.01,2013-10-21 13:41:00,
2013-10-21 08:46:00,36.5,24.3,30.00,NW,315,1.6,3.6,61,0.00,,---,0.00,0.00,VWS V14.01,2013-10-21 13:46:00,
2013-10-21 08:53:00,37.0,24.9,30.00,NNW,338,6.5,6.5,61,0.00,,---,0.00,0.00,VWS V14.01,2013-10-21 13:53:00,
2013-10-21 08:59:00,37.0,24.5,30.00,NW,315,4.5,4.5,60,0.00,,---,0.00,0.00,VWS V14.01,2013-10-21 13:59:00,
2013-10-21 09:05:00,37.0,24.5,30.00,NW,315,7.2,7.2,60,0.00,,---,0.00,0.00,VWS V14.01,2013-10-21 14:05:00,
2013-10-21 09:10:00,37.0,24.5,30.00,NW,315,4.0,4.0,60,0.00,,---,0.00,0.00,VWS V14.01,2013-10-21 14:10:00,
2013-10-21 09:17:00,38.8,25.8,30.00,NW,315,3.8,3.8,59,0.00,,---,0.00,0.00,VWS V14.01,2013-10-21 14:17:00,
2013-10-21 09:22:00,39.7,25.8,30.00,NW,315,6.0,7.8,57,0.00,,---,0.00,0.00,VWS V14.01,2013-10-21 14:22:00,
2013-10-21 09:27:00,40.1,25.7,30.00,NNW,338,4.5,4.5,56,0.00,,---,0.00,0.00,VWS V14.01,2013-10-21 14:27:00,
2013-10-21 09:32:00,40.6,26.2,30.00,NNW,338,4.3,6.3,56,0.00,,---,0.00,0.00,VWS V14.01,2013-10-21 14:32:00,
2013-10-21 09:38:00,41.0,25.2,30.03,NNW,338,4.3,6.5,53,0.00,,---,0.00,0.00,VWS V14.01,2013-10-21 14:38:00,
2013-10-21 09:44:00,41.2,24.4,30.03,NNW,338,5.4,8.7,51,0.00,,---,0.00,0.00,VWS V14.01,2013-10-21 14:44:00,
2013-10-21 09:50:00,41.2,24.4,30.03,NNW,338,5.6,5.6,51,0.00,,---,0.00,0.00,VWS V14.01,2013-10-21 14:50:00,
2013-10-21 09:55:00,41.4,24.6,30.03,NNW,338,3.1,3.1,51,0.00,,---,0.00,0.00,VWS V14.01,2013-10-21 14:55:00,
2013-10-21 10:00:00,42.1,24.8,30.03,NNW,338,3.8,3.8,50,0.00,,---,0.00,0.00,VWS V14.01,2013-10-21 15:00:00,
2013-10-21 10:06:00,42.8,25.0,30.03,NW,315,4.0,5.8,49,0.00,,---,0.00,0.00,VWS V14.01,2013-10-21 15:06:00,
2013-10-21 10:11:00,42.8,25.0,30.03,North,0,5.8,5.8,49,0.00,,---,0.00,0.00,VWS V14.01,2013-10-21 15:11:00,
2013-10-21 10:17:00,44.1,25.6,30.03,NNW,338,5.6,5.6,48,0.00,,---,0.00,0.00,VWS V14.01,2013-10-21 15:17:00,
2013-10-21 10:23:00,44.8,24.2,30.03,NNW,338,5.6,8.7,44,0.00,,---,0.00,0.00,VWS V14.01,2013-10-21 15:23:00,
2013-10-21 10:29:00,44.8,24.2,30.03,NNW,338,4.9,5.6,44,0.00,,---,0.00,0.00,VWS V14.01,2013-10-21 15:29:00,
2013-10-21 10:35:00,45.7,22.8,30.03,NNW,338,5.6,7.4,40,0.00,,---,0.00,0.00,VWS V14.01,2013-10-21 15:35:00,
2013-10-21 10:40:00,45.7,22.8,30.03,NNW,338,5.4,7.8,40,0.00,,---,0.00,0.00,VWS V14.01,2013-10-21 15:40:00,
2013-10-21 10:45:00,45.7,22.8,30.03,NNE,22,5.6,5.6,40,0.00,,---,0.00,0.00,VWS V14.01,2013-10-21 15:45:00,
2013-10-21 10:51:00,45.7,22.8,30.03,NNW,338,5.6,5.6,40,0.00,,---,0.00,0.00,VWS V14.01,2013-10-21 15:51:00,
2013-10-21 10:57:00,45.7,22.8,30.03,North,0,8.7,8.7,40,0.00,,---,0.00,0.00,VWS V14.01,2013-10-21 15:57:00,
2013-10-21 11:03:00,45.7,22.8,30.03,North,0,7.8,7.8,40,0.00,,---,0.00,0.00,VWS V14.01,2013-10-21 16:03:00,
2013-10-21 11:08:00,47.1,16.5,30.03,North,0,4.9,6.5,29,0.00,,---,0.00,0.00,VWS V14.01,2013-10-21 16:08:00,
2013-10-21 11:13:00,47.8,17.1,30.03,NNW,338,10.5,10.5,29,0.00,,---,0.00,0.00,VWS V14.01,2013-10-21 16:13:00,
2013-10-21 11:19:00,47.7,16.2,30.03,NNW,338,2.7,2.7,28,0.00,,---,0.00,0.00,VWS V14.01,2013-10-21 16:19:00,
2013-10-21 11:25:00,47.7,16.2,30.03,ENE,68,4.3,4.3,28,0.00,,---,0.00,0.00,VWS V14.01,2013-10-21 16:25:00,
2013-10-21 11:31:00,48.9,16.4,30.03,WNW,292,6.0,8.1,27,0.00,,---,11.79,0.00,VWS V14.01,2013-10-21 16:31:00,
2013-10-21 11:37:00,49.1,16.6,30.03,North,0,6.3,7.8,27,0.00,,---,11.79,0.00,VWS V14.01,2013-10-21 16:37:00,
2013-10-21 11:42:00,49.1,16.6,30.03,NNW,338,7.4,7.4,27,0.00,,---,11.79,0.00,VWS V14.01,2013-10-21 16:42:00,
2013-10-21 11:47:00,49.3,14.0,30.03,North,0,8.5,8.5,24,0.00,,---,11.79,0.00,VWS V14.01,2013-10-21 16:47:00,
2013-10-21 11:52:00,49.5,14.2,30.03,North,0,7.6,8.5,24,0.00,,---,11.79,0.00,VWS V14.01,2013-10-21 16:52:00,
2013-10-21 11:58:00,49.6,14.3,30.00,West,270,5.6,5.6,24,0.00,,---,11.79,0.00,VWS V14.01,2013-10-21 16:58:00,
2013-10-21 12:03:00,50.2,14.8,30.00,WNW,292,4.3,6.0,24,0.00,,---,11.79,0.00,VWS V14.01,2013-10-21 17:03:00,
2013-10-21 12:10:00,50.2,11.8,30.00,North,0,7.2,7.2,21,0.00,,---,11.79,0.00,VWS V14.01,2013-10-21 17:10:00,
2013-10-21 12:15:00,50.2,11.8,30.03,NNW,338,5.4,6.3,21,0.00,,---,11.79,0.00,VWS V14.01,2013-10-21 17:15:00,
2013-10-21 12:20:00,50.5,12.1,30.03,WNW,292,4.3,4.3,21,0.00,,---,11.79,0.00,VWS V14.01,2013-10-21 17:20:00,
2013-10-21 12:25:00,50.5,12.1,30.03,NNW,338,10.5,10.5,21,0.00,,---,11.79,0.00,VWS V14.01,2013-10-21 17:25:00,
2013-10-21 12:30:00,50.5,12.1,30.03,North,0,7.8,7.8,21,0.00,,---,11.79,0.00,VWS V14.01,2013-10-21 17:30:00,
2013-10-21 12:35:00,50.5,12.1,30.03,WNW,292,6.3,6.3,21,0.00,,---,11.79,0.00,VWS V14.01,2013-10-21 17:35:00,
2013-10-21 12:41:00,51.1,12.5,30.03,NNW,338,6.5,6.5,21,0.00,,---,11.79,0.00,VWS V14.01,2013-10-21 17:41:00,
2013-10-21 12:47:00,51.1,12.5,30.03,North,0,8.7,8.7,21,0.00,,---,11.79,0.00,VWS V14.01,2013-10-21 17:47:00,
2013-10-21 12:52:00,51.1,12.5,30.03,NW,315,10.1,11.9,21,0.00,,---,11.79,0.00,VWS V14.01,2013-10-21 17:52:00,
2013-10-21 12:58:00,51.3,10.4,30.03,North,0,6.3,7.6,19,0.00,,---,11.79,0.00,VWS V14.01,2013-10-21 17:58:00,
2013-10-21 13:03:00,51.3,10.4,30.03,North,0,7.8,7.8,19,0.00,,---,11.79,0.00,VWS V14.01,2013-10-21 18:03:00,
2013-10-21 13:09:00,51.3,10.4,30.03,NNW,338,5.6,6.5,19,0.00,,---,11.79,0.00,VWS V14.01,2013-10-21 18:09:00,
2013-10-21 13:14:00,51.3,10.4,30.03,NNW,338,8.7,8.7,19,0.00,,---,11.79,0.00,VWS V14.01,2013-10-21 18:14:00,
2013-10-21 13:20:00,51.3,10.4,30.03,West,270,9.8,9.8,19,0.00,,---,11.79,0.00,VWS V14.01,2013-10-21 18:20:00,
2013-10-21 13:25:00,51.3,10.4,30.03,NNW,338,11.0,11.0,19,0.00,,---,11.79,0.00,VWS V14.01,2013-10-21 18:25:00,
2013-10-21 13:31:00,51.3,10.4,30.03,NNW,338,5.8,7.2,19,0.00,,---,11.79,0.00,VWS V14.01,2013-10-21 18:31:00,
2013-10-21 13:36:00,51.3,10.4,30.03,SSW,202,2.7,4.0,19,0.00,,---,11.79,0.00,VWS V14.01,2013-10-21 18:36:00,
2013-10-21 13:42:00,51.3,10.4,30.03,NNE,22,6.3,7.8,19,0.00,,---,11.79,0.00,VWS V14.01,2013-10-21 18:42:00,
2013-10-21 13:48:00,53.1,10.7,30.03,NNW,338,2.5,2.5,18,0.00,,---,11.79,0.00,VWS V14.01,2013-10-21 18:48:00,
2013-10-21 13:53:00,53.1,10.7,30.03,WNW,292,7.8,7.8,18,0.00,,---,11.79,0.00,VWS V14.01,2013-10-21 18:53:00,
2013-10-21 13:58:00,53.1,10.7,30.03,NNW,338,2.7,2.7,18,0.00,,---,11.79,0.00,VWS V14.01,2013-10-21 18:58:00,
2013-10-21 14:04:00,53.4,11.0,30.03,North,0,5.4,5.4,18,0.00,,---,11.79,0.00,VWS V14.01,2013-10-21 19:04:00,
2013-10-21 14:10:00,53.4,11.0,30.03,West,270,6.9,6.9,18,0.00,,---,11.79,0.00,VWS V14.01,2013-10-21 19:10:00,
2013-10-21 14:16:00,53.4,11.0,30.03,NNW,338,2.7,7.2,18,0.00,,---,11.79,0.00,VWS V14.01,2013-10-21 19:16:00,
2013-10-21 14:22:00,53.4,11.0,30.03,North,0,6.3,8.1,18,0.00,,---,11.79,0.00,VWS V14.01,2013-10-21 19:22:00,
2013-10-21 14:27:00,53.6,11.1,30.03,WNW,292,3.8,3.8,18,0.00,,---,11.79,0.00,VWS V14.01,2013-10-21 19:27:00,
2013-10-21 14:33:00,53.6,11.1,30.03,WNW,292,5.6,7.4,18,0.00,,---,11.79,0.00,VWS V14.01,2013-10-21 19:33:00,
2013-10-21 14:40:00,53.6,11.1,30.03,West,270,3.8,4.7,18,0.00,,---,11.79,0.00,VWS V14.01,2013-10-21 19:40:00,
2013-10-21 14:49:00,54.3,11.7,0.00,WNW,292,6.5,7.4,18,0.00,,---,11.79,0.00,VWS V14.01,2013-10-21 19:49:00,
2013-10-21 14:54:00,54.3,11.7,30.00,NNW,338,4.0,4.7,18,0.00,,---,11.79,0.00,VWS V14.01,2013-10-21 19:54:00,
2013-10-21 15:00:00,54.5,11.9,30.00,NNW,338,6.0,8.5,18,0.00,,---,11.79,0.00,VWS V14.01,2013-10-21 20:00:00,
2013-10-21 15:05:00,54.7,12.0,30.00,WNW,292,3.8,5.4,18,0.00,,---,11.79,0.00,VWS V14.01,2013-10-21 20:05:00,
2013-10-21 15:11:00,54.9,12.2,30.00,WNW,292,8.7,8.7,18,0.00,,---,11.79,0.00,VWS V14.01,2013-10-21 20:11:00,
2013-10-21 15:16:00,55.0,12.3,30.00,NNW,338,7.4,7.6,18,0.00,,---,11.79,0.00,VWS V14.01,2013-10-21 20:16:00,
2013-10-21 15:22:00,54.3,11.7,30.00,WNW,292,5.4,5.4,18,0.00,,---,11.79,0.00,VWS V14.01,2013-10-21 20:22:00,
2013-10-21 15:27:00,54.3,11.7,30.00,WSW,248,4.3,4.3,18,0.00,,---,11.79,0.00,VWS V14.01,2013-10-21 20:27:00,
2013-10-21 15:33:00,54.0,11.4,30.00,WNW,292,6.0,7.4,18,0.00,,---,11.79,0.00,VWS V14.01,2013-10-21 20:33:00,
2013-10-21 15:38:00,53.6,11.1,30.00,WSW,248,4.3,4.3,18,0.00,,---,11.79,0.00,VWS V14.01,2013-10-21 20:38:00,
2013-10-21 15:44:00,53.2,10.9,30.00,WNW,292,1.3,1.3,18,0.00,,---,11.79,0.00,VWS V14.01,2013-10-21 20:44:00,
2013-10-21 15:50:00,54.3,11.7,30.00,West,270,3.1,5.4,18,0.00,,---,11.79,0.00,VWS V14.01,2013-10-21 20:50:00,
2013-10-21 15:55:00,54.3,11.7,30.00,West,270,7.2,7.2,18,0.00,,---,11.79,0.00,VWS V14.01,2013-10-21 20:55:00,
2013-10-21 16:01:00,55.0,12.3,30.00,West,270,6.9,20.4,18,0.00,,---,11.79,0.00,VWS V14.01,2013-10-21 21:01:00,
2013-10-21 16:07:00,53.8,11.3,29.97,West,270,5.4,6.3,18,0.00,,---,11.79,0.00,VWS V14.01,2013-10-21 21:07:00,
2013-10-21 16:12:00,54.3,11.7,29.97,West,270,6.5,6.5,18,0.00,,---,11.79,0.00,VWS V14.01,2013-10-21 21:12:00,
2013-10-21 16:18:00,54.3,11.7,29.97,West,270,4.3,4.3,18,0.00,,---,11.79,0.00,VWS V14.01,2013-10-21 21:18:00,
2013-10-21 16:24:00,54.1,11.6,29.97,WSW,248,3.4,5.6,18,0.00,,---,11.79,0.00,VWS V14.01,2013-10-21 21:24:00,
2013-10-21 16:29:00,54.1,11.6,29.97,West,270,4.0,5.8,18,0.00,,---,11.79,0.00,VWS V14.01,2013-10-21 21:29:00,
2013-10-21 16:34:00,54.0,11.4,29.97,NNW,338,8.1,8.1,18,0.00,,---,11.79,0.00,VWS V14.01,2013-10-21 21:34:00,
2013-10-21 16:40:00,53.8,11.3,29.97,NW,315,5.4,8.7,18,0.00,,---,11.79,0.00,VWS V14.01,2013-10-21 21:40:00,
2013-10-21 16:45:00,53.8,11.3,29.97,WNW,292,7.8,7.8,18,0.00,,---,11.79,0.00,VWS V14.01,2013-10-21 21:45:00,
2013-10-21 16:51:00,52.7,10.4,29.97,NW,315,6.3,6.3,18,0.00,,---,11.79,0.00,VWS V14.01,2013-10-21 21:51:00,
2013-10-21 16:57:00,52.7,10.4,29.97,WNW,292,2.7,3.1,18,0.00,,---,11.79,0.00,VWS V14.01,2013-10-21 21:57:00,
2013-10-21 17:02:00,53.4,11.0,29.94,WSW,248,4.3,4.3,18,0.00,,---,11.79,0.00,VWS V14.01,2013-10-21 22:02:00,
2013-10-21 17:07:00,53.1,10.7,29.94,WNW,292,3.8,3.8,18,0.00,,---,11.79,0.00,VWS V14.01,2013-10-21 22:07:00,
2013-10-21 17:13:00,52.7,10.4,29.94,West,270,3.8,5.4,18,0.00,,---,11.79,0.00,VWS V14.01,2013-10-21 22:13:00,
2013-10-21 17:18:00,52.0,9.8,30.00,SSW,202,6.0,6.0,18,0.00,,---,11.79,0.00,VWS V14.01,2013-10-21 22:18:00,
2013-10-21 17:25:00,52.0,9.8,29.97,West,270,4.3,6.0,18,0.00,,---,11.79,0.00,VWS V14.01,2013-10-21 22:25:00,
2013-10-21 17:30:00,52.3,10.1,29.97,WNW,292,3.1,3.1,18,0.00,,---,11.79,0.00,VWS V14.01,2013-10-21 22:30:00,
2013-10-21 17:35:00,52.2,10.0,29.97,West,270,2.0,3.6,18,0.00,,---,11.79,0.00,VWS V14.01,2013-10-21 22:35:00,
2013-10-21 17:40:00,52.0,9.8,29.97,WNW,292,3.1,3.1,18,0.00,,---,11.79,0.00,VWS V14.01,2013-10-21 22:40:00,
2013-10-21 17:45:00,51.8,9.7,29.97,West,270,3.8,3.8,18,0.00,,---,11.79,0.00,VWS V14.01,2013-10-21 22:45:00,
2013-10-21 17:51:00,52.0,13.3,29.97,SW,225,3.4,3.4,21,0.00,,---,11.79,0.00,VWS V14.01,2013-10-21 22:51:00,
2013-10-21 17:57:00,52.5,13.7,29.97,West,270,3.1,3.1,21,0.00,,---,11.79,0.00,VWS V14.01,2013-10-21 22:57:00,
2013-10-21 18:03:00,52.7,13.9,29.97,West,270,3.1,3.1,21,0.00,,---,11.79,0.00,VWS V14.01,2013-10-21 23:03:00,
2013-10-21 18:09:00,51.8,9.7,29.97,WNW,292,0.9,2.5,18,0.00,,---,11.79,0.00,VWS V14.01,2013-10-21 23:09:00,
2013-10-21 18:14:00,51.3,10.4,29.97,WNW,292,0.0,0.0,19,0.00,,---,11.79,0.00,VWS V14.01,2013-10-21 23:14:00,
2013-10-21 18:20:00,51.3,10.4,29.97,WNW,292,2.0,2.0,19,0.00,,---,11.79,0.00,VWS V14.01,2013-10-21 23:20:00,
2013-10-21 18:26:00,49.8,9.2,29.94,West,270,0.0,1.3,19,0.00,,---,11.79,0.00,VWS V14.01,2013-10-21 23:26:00,
2013-10-21 18:32:00,49.3,8.8,29.94,West,270,0.0,0.0,19,0.00,,---,11.79,0.00,VWS V14.01,2013-10-21 23:32:00,
2013-10-21 18:38:00,48.4,8.0,29.97,West,270,0.0,0.0,19,0.00,,---,11.79,0.00,VWS V14.01,2013-10-21 23:38:00,
2013-10-21 18:44:00,47.8,7.6,29.97,West,270,0.0,0.0,19,0.00,,---,11.79,0.00,VWS V14.01,2013-10-21 23:44:00,
2013-10-21 18:50:00,47.7,10.7,29.97,WSW,248,0.0,0.0,22,0.00,,---,11.79,0.00,VWS V14.01,2013-10-21 23:50:00,
2013-10-21 18:56:00,47.7,10.7,29.97,WSW,248,0.0,0.0,22,0.00,,---,11.79,0.00,VWS V14.01,2013-10-21 23:56:00,
2013-10-21 19:01:00,47.7,10.7,29.94,WSW,248,0.0,0.0,22,0.00,,---,11.79,0.00,VWS V14.01,2013-10-22 00:01:00,
2013-10-21 19:07:00,47.3,10.4,29.94,SW,225,0.0,0.0,22,0.00,,---,11.79,0.00,VWS V14.01,2013-10-22 00:07:00,
2013-10-21 19:12:00,47.3,10.4,29.94,SW,225,0.0,0.0,22,0.00,,---,11.79,0.00,VWS V14.01,2013-10-22 00:12:00,
2013-10-21 19:18:00,47.1,10.2,29.94,SW,225,0.0,0.0,22,0.00,,---,11.79,0.00,VWS V14.01,2013-10-22 00:18:00,
2013-10-21 19:23:00,46.9,10.1,29.94,SSW,202,0.0,0.0,22,0.00,,---,11.79,0.00,VWS V14.01,2013-10-22 00:23:00,
2013-10-21 19:29:00,46.4,9.6,29.94,SSW,202,0.0,0.0,22,0.00,,---,11.79,0.00,VWS V14.01,2013-10-22 00:29:00,
2013-10-21 19:34:00,45.7,9.0,29.94,South,180,2.0,2.0,22,0.00,,---,11.79,0.00,VWS V14.01,2013-10-22 00:34:00,
2013-10-21 19:40:00,45.7,9.0,29.91,South,180,2.0,2.0,22,0.00,,---,11.79,0.00,VWS V14.01,2013-10-22 00:40:00,
2013-10-21 19:46:00,44.4,10.8,29.91,South,180,1.3,1.3,25,0.00,,---,11.79,0.00,VWS V14.01,2013-10-22 00:46:00,
2013-10-21 19:51:00,44.2,10.7,29.91,SSW,202,1.3,1.3,25,0.00,,---,11.79,0.00,VWS V14.01,2013-10-22 00:51:00,
2013-10-21 19:58:00,44.2,10.7,29.91,SSW,202,1.1,1.3,25,0.00,,---,11.79,0.00,VWS V14.01,2013-10-22 00:58:00,
2013-10-21 20:04:00,44.1,13.1,29.91,SSW,202,0.0,0.0,28,0.00,,---,11.79,0.00,VWS V14.01,2013-10-22 01:04:00,
2013-10-21 20:09:00,43.9,12.9,29.91,SSW,202,0.0,0.0,28,0.00,,---,11.79,0.00,VWS V14.01,2013-10-22 01:09:00,
2013-10-21 20:14:00,43.3,12.4,29.91,SSW,202,0.0,0.0,28,0.00,,---,11.79,0.00,VWS V14.01,2013-10-22 01:14:00,
2013-10-21 20:20:00,43.0,12.1,29.91,SSW,202,0.0,0.0,28,0.00,,---,11.79,0.00,VWS V14.01,2013-10-22 01:20:00,
2013-10-21 20:25:00,42.8,12.0,29.91,SSW,202,0.0,0.0,28,0.00,,---,11.79,0.00,VWS V14.01,2013-10-22 01:25:00,
2013-10-21 20:30:00,42.4,12.4,29.91,SSE,158,0.0,2.2,29,0.00,,---,11.79,0.00,VWS V14.01,2013-10-22 01:30:00,
2013-10-21 20:36:00,42.4,12.4,29.91,SSE,158,1.3,2.0,29,0.00,,---,11.79,0.00,VWS V14.01,2013-10-22 01:36:00,
2013-10-21 20:41:00,42.4,12.4,29.91,SSE,158,2.5,2.5,29,0.00,,---,11.79,0.00,VWS V14.01,2013-10-22 01:41:00,
2013-10-21 20:46:00,42.6,12.6,29.91,SSE,158,1.6,2.0,29,0.00,,---,11.79,0.00,VWS V14.01,2013-10-22 01:46:00,